Temp
5 5 5 5 5 5 5 5 5 4 4 4 4 4 4 4 5 5 5 4 4 4 4 4 4 3 3 3 4 4 3 3 3 3 3 2 2 2 2 2 2 2 2 1 1 1 0 0 0 0 0 0 0 0 0 0 0 0 1 1 1 1 2 2 2 2 3 3 3 3 3 2 2 2 2 2 2 2 3 3 3 2 2 2 2 2
5 5 5 5 5 5 5 5 5 5 4 4 4 4 4 4 4 5 5 4 4 4 4 4 4 3 3 3 3 3 3 3 3 3 3 2 2 2 2 2 2 2 2 1 1 1 1 1 1 1 1 1 1 1 1 1 1 1 1 1 1 2 2 2 2 2 2 3 3 3 2 2 2 2 2 2 2 2 3 3 2 2 2 2 2 2
5 5 5 5 5 5 5 5 5 5 5 4 4 4 4 4 4 4 4 4 4 4 4 4 4 3 3 3 3 3 3 3 2 2 2 2 2 2 2 2 2 2 2 1 1 1 1 1 1 1 1 1 1 1 1 1 1 1 1 2 2 2 2 2 2 2 2 3 3 2 2 2 2 2 2 2 2 2 2 2 2 2 2 2 2 2
5 5 5 5 5 5 5 5 5 5 5 5 4 4 4 4 4 4 4 4 4 4 4 4 4 3 3 3 3 3 3 2 2 2 2 2 2 2 2 2 2 2 1 1 1 1 1 2 2 2 2 2 2 2 2 1 2 2 2 2 2 2 2 2 2 2 2 2 2 2 3 2 2 2 2 2 2 2 2 2 1 1 1 1 1 1
5 5 5 5 5 5 5 5 5 5 5 5 4 4 4 4 4 4 4 4 4 4 4 4 4 3 3 3 3 3 2 2 2 2 2 2 2 2 2 2 2 2 1 1 1 1 1 2 2 2 2 2 2 2 2 2 2 2 2 2 2 2 2 2 2 2 2 2 2 3 3 3 2 2 2 2 2 2 1 1 1 1 1 1 1 1
5 5 5 5 5 5 5 5 5 5 5 5 5 4 4 4 5 5 5 4 4 4 4 4 4 3 3 3 3 3 2 2 2 2 2 2 2 2 2 2 2 2 1 1 1 1 1 1 2 2 2 2 2 2 3 3 3 3 2 2 2 2 2 2 2 2 2 2 3 3 3 2 2 2 2 2 2 2 1 2 2 2 2 1 1 1
5 5 5 5 5 5 5 5 5 5 5 5 5 5 5 5 5 5 5 5 5 4 4 4 4 3 3 3 3 2 2 2 2 2 2 2 2 2 2 2 2 2 2 1 1 1 1 1 1 1 2 2 2 2 3 3 3 3 3 2 2 2 2 2 2 2 2 2 2 2 2 2 2 2 2 2 2 2 2 2 2 2 2 2 1 1
4 4 4 4 5 5 5 5 5 5 5 5 5 5 5 5 5 5 5 5 5 5 4 4 3 3 3 3 3 3 2 2 2 2 2 2 2 2 2 2 2 2 2 1 1 1 1 1 1 1 1 2 2 2 3 3 3 3 3 2 2 2 1 1 2 2 2 2 2 2 2 2 2 2 2 2 2 2 2 2 2 2 2 2 2 2
4 4 4 4 4 5 5 5 5 5 5 5 5 5 5 5 5 5 5 5 5 5 4 4 3 3 3 3 3 2 2 2 2 2 2 2 2 2 2 2 2 2 2 2 2 2 2 2 1 1 1 1 1 2 3 3 3 3 3 3 2 2 1 1 1 2 2 2 2 2 2 2 2 2 2 2 2 2 2 2 2 2 2 2 2 1
4 4 4 4 4 4 5 5 5 5 5 5 5 5 5 5 5 5 5 5 5 5 4 4 3 3 3 3 3 2 2 2 2 2 2 2 2 2 2 2 2 2 2 2 2 2 1 1 1 1 1 1 1 2 2 3 3 3 2 2 2 1 1 1 1 2 2 2 2 2 2 2 2 2 2 2 2 2 2 2 2 2 1 1 1 1
4 4 4 4 4 4 4 5 5 5 5 5 5 5 5 5 5 5 5 5 5 5 4 4 3 3 3 2 2 2 1 1 1 1 2 2 2 2 1 2 2 2 2 2 2 1 1 1 1 1 1 1 1 1 2 2 2 2 1 1 1 1 1 1 1 1 2 2 2 2 2 2 2 2 2 2 1 1 1 1 1 1 1 1 1 0
4 4 4 4 4 4 4 4 4 4 4 5 5 5 5 5 5 5 5 5 5 4 4 3 3 3 2 2 2 1 1 1 1 1 1 1 1 1 1 1 1 1 2 2 2 2 1 1 1 1 1 1 1 1 1 1 1 1 1 0 0 1 1 1 1 1 2 2 2 2 2 1 1 1 1 1 1 1 1 1 0 0 0 0 0 0
4 4 4 4 4 4 4 4 4 4 4 5 5 5 5 5 5 4 5 5 4 4 4 3 3 2 2 2 1 1 1 1 1 0 1 1 1 1 1 1 1 1 1 1 1 1 1 1 1 1 1 0 0 0 0 1 1 1 0 0 0 1 1 1 1 1 1 1 1 1 0 0 0 -0 -0 0 0 0 0 0 -0 -0 -0 -0 -0 -0
4 4 4 4 4 4 4 4 4 4 4 4 5 5 5 4 4 4 4 4 4 4 4 3 2 2 2 1 1 1 1 1 1 1 1 1 1 1 2 2 1 1 1 1 0 0 0 0 0 0 0 0 0 0 0 1 1 1 0 0 0 0 1 1 1 1 0 0 0 -0 -0 -0 -0 -0 -0 -0 -0 -0 -0 -0 -0 -0 -0 -0 -0 -1
4 4 4 4 4 4 4 4 4 4 4 4 4 4 4 4 4 4 4 4 4 4 3 3 3 2 2 1 1 1 1 1 1 1 1 1 1 1 1 1 1 1 1 1 1 0 0 0 0 0 0 0 0 0 0 0 0 0 0 0 0 0 0 0 0 0 0 0 0 -0 -0 -0 -0 -0 -0 -0 -1 -1 -1 -1 -1 -1 -1 -1 -1 -1
3 4 4 4 4 4 4 4 4 4 4 4 4 4 4 4 4 4 4 4 4 4 3 3 3 2 2 1 1 1 1 1 1 1 1 1 1 1 1 1 1 1 1 1 1 1 1 1 1 0 0 0 0 0 0 -0 -0 0 0 0 1 1 1 1 1 0 0 -0 -0 -0 -1 -1 -0 -0 -0 -1 -1 -1 -1 -1 -1 -1 -1 -1 -1 -1
3 3 3 4 4 4 4 4 4 4 4 4 4 4 4 4 4 4 4 4 4 3 3 3 3 2 2 1 1 1 1 1 1 1 1 1 1 1 1 1 1 1 1 1 1 1 1 1 1 0 0 -0 -0 -0 -0 -0 0 0 1 1 1 1 1 0 0 -0 -0 -0 -0 -0 -0 -0 -0 -0 -0 -0 -0 -0 -0 -0 -0 -0 -0 -0 -0 -0
3 3 3 3 4 4 4 4 4 4 4 4 4 4 4 4 4 4 4 4 4 3 3 3 3 2 2 2 1 1 1 1 1 1 1 1 1 1 1 1 1 1 1 1 1 1 1 1 0 0 -0 -0 -0 -0 -0 0 0 1 1 1 1 0 0 0 -0 -0 -0 -0 -0 -0 -0 -0 -0 -0 -0 -0 -0 -0 -0 -0 -0 -0 -1 -1 -1 -0
3 3 3 3 3 3 3 4 4 4 4 4 4 4 4 4 4 4 4 4 4 4 3 3 3 2 2 1 1 1 1 1 1 1 1 1 1 1 1 1 1 1 1 1 1 1 1 1 0 -0 -0 -0 -0 -0 -0 -0 -0 -0 0 0 0 0 0 0 -0 -0 -0 -0 -0 -0 -0 -0 -0 -0 -0 -0 -0 -0 -0 -0 -1 -1 -1 -1 -1 -1
3 3 3 3 3 3 3 3 3 3 3 3 3 3 3 3 4 4 4 4 4 3 3 3 3 3 2 1 1 0 0 1 1 1 1 1 1 1 1 1 1 1 1 1 1 1 1 1 0 -0 -0 -1 -0 -0 -0 -1 -1 -1 -1 -0 -0 0 0 0 0 -0 -0 -0 -0 -0 -0 -0 -0 -0 -0 -0 -0 -0 -0 -0 -0 -0 -1 -1 -1 -1
3 3 3 3 3 3 3 3 3 3 3 3 3 3 3 3 3 3 3 3 3 3 3 3 3 3 2 2 1 1 0 0 1 1 1 1 1 1 1 1 1 1 1 1 1 1 1 1 0 0 -0 -1 -1 -1 -1 -1 -1 -1 -1 -1 -0 -0 0 0 0 0 0 -0 -0 -0 -0 -0 -0 -0 -0 -0 -0 -0 -0 -0 -0 -1 -1 -1 -1 -1
3 3 3 3 3 3 3 3 3 3 3 3 3 3 3 3 3 3 3 3 3 3 3 3 3 3 2 2 1 1 1 0 1 1 1 1 1 0 0 0 1 1 1 1 1 1 1 1 1 0 -0 -0 -0 -0 -0 -0 -0 -0 -1 -1 -1 -1 -0 -0 0 0 0 -0 -0 -0 -0 -0 -0 -0 -0 -0 -0 -0 -0 -0 -1 -1 -1 -1 -1 -1
3 3 3 3 3 3 3 3 3 3 3 3 3 3 3 3 3 3 3 3 3 3 3 3 3 3 3 2 2 2 1 1 1 1 1 1 1 0 -0 -0 0 0 0 -0 -0 -0 -0 0 0 0 0 0 0 0 0 0 0 -0 -0 -1 -1 -1 -1 -0 -0 -0 0 -0 -0 -0 -0 -1 -1 -1 -1 -1 -1 -1 -1 -1 -1 -1 -1 -1 -1 -1
3 3 3 3 3 3 3 3 3 3 3 3 3 3 3 3 3 3 3 3 3 3 3 3 3 3 3 2 2 2 2 1 1 1 1 1 1 0 -0 -0 -0 -0 -0 -0 -0 -1 -0 -0 -0 -0 0 0 0 0 0 0 0 0 -0 -0 -0 -0 -0 -0 -0 -0 -0 -0 -0 -1 -1 -1 -1 -1 -1 -1 -1 -1 -1 -1 -1 -1 -1 -1 -1 -1
3 3 3 3 3 3 3 3 3 3 3 3 3 3 3 3 3 3 3 3 3 3 3 3 3 3 3 2 2 2 2 2 1 1 1 1 1 1 0 0 0 0 0 -0 -0 -0 -0 -0 -0 -0 -0 -0 -0 0 0 0 0 0 -0 -0 -0 -0 -0 -0 -0 -0 -0 -0 -0 -1 -1 -1 -1 -1 -1 -1 -1 -1 -1 -1 -1 -1 -1 -0 -0 -0
3 3 3 3 3 3 3 3 3 3 3 3 3 3 3 3 3 3 3 3 3 3 2 2 3 3 3 3 2 2 2 2 2 2 2 2 1 1 1 1 0 0 0 0 -0 -0 -0 0 0 0 0 0 0 0 0 0 0 0 0 0 -0 -0 -0 -0 -0 -0 -0 -0 -0 -1 -1 -1 -1 -1 -1 -1 -1 -1 -1 -1 -1 -1 -0 -0 -0 -0
2 2 3 3 3 3 2 2 2 2 3 3 3 3 2 2 2 2 3 3 2 2 2 2 2 2 2 2 2 2 2 2 2 2 2 2 2 2 1 1 1 1 1 1 0 0 0 0 0 0 1 1 0 0 0 0 0 0 0 0 -0 -0 -0 -0 -0 -0 -0 -0 -1 -1 -1 -1 -1 -1 -1 -1 -1 -1 -1 -1 -1 -0 -0 -0 -0 -0
2 2 2 2 2 2 2 2 2 2 2 2 2 2 2 2 2 2 2 2 2 2 2 2 2 2 2 2 2 2 2 2 2 2 2 2 2 2 2 2 1 1 1 1 1 1 1 1 1 1 1 1 1 1 1 0 0 0 0 0 -0 -0 -0 -0 -0 -0 -1 -1 -1 -1 -1 -1 -1 -1 -1 -1 -1 -1 -1 -1 -1 -1 -0 -0 -0 -0
2 2 2 2 2 2 2 2 2 2 2 2 2 2 2 2 2 2 2 2 2 2 2 2 2 2 2 2 2 2 2 2 2 2 2 2 2 2 2 2 1 1 1 1 1 1 1 1 1 1 1 1 1 1 1 1 0 0 0 0 0 -0 -0 -0 -0 -0 -1 -1 -1 -1 -1 -1 -1 -1 -1 -1 -1 -1 -1 -1 -1 -1 -1 -0 -0 -0
2 2 2 2 2 2 2 2 2 2 2 2 2 2 2 2 2 2 2 2 2 2 2 2 2 2 2 2 2 2 2 2 2 2 2 2 2 2 2 2 2 1 1 1 1 1 1 1 1 1 1 1 1 1 1 1 1 0 0 0 0 -0 -0 -0 -0 -0 -0 -1 -1 -1 -1 -1 -1 -1 -1 -1 -1 -1 -1 -1 -1 -1 -1 -0 -0 -0
2 2 2 2 2 2 2 2 2 2 2 2 2 2 2 2 2 2 2 2 2 2 2 2 2 2 2 2 2 2 2 2 2 2 2 2 2 2 2 2 2 1 1 1 1 1 2 2 2 1 1 1 1 1 1 1 1 1 1 0 0 0 -0 -0 -0 -0 -0 -0 -1 -1 -1 -1 -1 -1 -1 -1 -1 -1 -1 -1 -1 -1 -1 -0 -0 -0
2 2 2 2 2 2 2 2 2 2 2 2 2 2 2 2 2 2 2 2 2 2 2 2 2 2 2 2 2 2 2 2 2 2 2 2 2 2 2 2 2 1 1 1 1 1 2 2 2 2 1 1 1 1 1 1 1 1 1 0 0 0 0 0 0 -0 -0 -0 -0 -0 -0 -0 -1 -1 -1 -1 -1 -1 -1 -1 -1 -1 -1 -1 -1 -1
2 2 2 2 2 2 2 2 2 2 2 2 2 2 2 2 2 2 1 1 1 1 1 1 1 1 2 2 2 2 2 2 2 2 2 2 2 2 2 2 1 1 1 1 1 2 2 2 2 2 2 1 1 1 1 1 1 1 1 1 0 0 0 0 0 0 0 0 0 0 0 -0 -0 -0 -0 -0 -0 -1 -1 -1 -1 -1 -1 -1 -1 -1
2 2 2 2 2 2 2 2 2 2 2 2 2 1 1 1 1 1 1 1 1 1 1 1 1 1 1 1 2 2 2 2 2 2 2 2 2 2 2 1 1 1 1 1 2 2 2 2 2 2 2 1 1 1 1 1 1 1 1 1 1 1 1 1 1 1 1 1 1 0 0 0 0 0 0 -0 -0 -0 -0 -1 -1 -1 -1 -1 -1 -1
2 2 2 2 2 2 2 1 1 1 1 1 1 1 1 1 1 1 1 1 1 1 1 1 1 1 1 1 1 1 1 1 2 2 2 2 2 2 2 2 2 2 2 2 2 2 2 2 2 2 2 2 1 1 1 1 1 1 1 1 1 1 1 1 1 1 1 1 1 1 1 1 1 1 0 0 0 0 -0 -0 -0 -1 -1 -1 -1 -1
2 2 2 2 1 1 1 1 1 1 1 1 1 1 1 1 1 1 1 1 1 1 1 1 1 1 1 1 1 1 1 1 1 1 1 2 2 2 2 2 2 2 2 2 2 2 2 2 2 2 2 2 2 2 2 2 2 1 1 1 1 1 1 1 1 1 1 1 1 1 1 1 1 1 1 1 1 0 0 0 -0 -0 -0 -0 -1 -1
1 1 1 1 1 1 1 1 1 1 1 1 1 1 1 1 1 1 1 1 1 1 1 1 1 1 1 1 1 1 1 1 1 1 1 1 1 1 1 2 2 2 2 2 2 2 2 2 2 2 2 2 2 2 2 2 2 2 2 2 2 2 2 2 1 1 1 1 1 1 1 1 1 1 1 1 1 1 1 0 0 0 -0 -0 -0 -0
1 1 1 1 1 1 1 1 1 1 1 1 1 1 1 1 1 1 1 1 1 1 1 1 1 1 1 1 1 1 1 1 1 1 1 1 1 1 1 1 1 1 1 1 2 2 2 2 2 2 2 2 2 2 1 1 1 1 1 1 1 1 1 1 2 2 2 2 2 1 1 1 1 1 1 1 1 1 1 1 1 0 0 0 -0 -0
1 1 1 1 1 1 1 1 1 1 1 1 1 1 1 1 1 1 1 1 1 1 1 1 1 1 1 1 1 1 1 1 1 1 1 1 1 1 1 1 1 1 1 1 1 1 1 2 2 2 2 2 2 1 1 1 1 1 1 1 1 1 1 1 1 1 1 1 1 2 1 1 1 1 1 1 1 1 1 1 1 1 1 0 0 -0
1 1 1 1 1 1 1 1 1 1 1 1 1 1 1 1 1 1 1 1 1 1 1 1 1 1 1 1 1 1 0 0 0 0 0 0 0 0 0 1 1 1 1 1 1 1 1 1 1 1 1 1 1 1 1 1 1 1 1 1 1 1 1 1 1 1 1 1 1 1 1 1 1 1 1 1 1 1 1 1 1 1 1 1 1 0
1 1 1 1 1 1 1 1 1 1 0 0 1 1 1 1 1 1 1 1 1 0 0 0 0 0 0 0 0 0 0 0 0 0 0 0 0 0 0 0 0 0 1 1 1 1 1 1 1 1 1 1 1 1 1 1 1 1 1 1 1 1 1 1 1 1 1 1 1 1 1 1 1 1 1 1 2 2 1 1 1 1 1 1 1 1
0 0 0 0 0 0 0 0 0 0 0 0 0 0 0 0 0 0 0 0 0 0 0 0 0 0 0 0 0 0 0 0 0 0 0 0 0 0 0 0 0 0 0 0 0 1 1 1 1 1 1 1 1 1 1 1 1 1 1 1 1 1 1 1 1 1 1 1 1 1 1 1 1 1 1 1 1 1 1 1 2 1 1 1 1 1
0 0 0 0 0 0 0 0 0 0 0 0 0 0 0 0 0 0 0 0 0 0 0 0 0 0 0 0 0 0 0 0 0 0 0 0 0 0 0 0 0 0 0 0 0 0 0 0 1 1 1 1 1 1 1 1 1 1 1 1 1 1 1 1 1 1 1 1 1 1 1 1 1 1 1 1 1 1 1 1 1 1 1 1 1 1
-0 -0 -0 -0 -0 -0 -0 -0 -0 -0 -0 -0 0 0 0 0 0 0 0 0 0 0 0 0 0 0 0 0 0 0 0 0 0 0 0 0 0 0 0 0 0 0 0 0 0 0 0 0 0 0 0 1 1 1 1 1 1 1 1 1 1 1 1 1 1 1 1 1 1 1 1 1 1 1 1 1 1 1 1 1 1 1 1 1 1 1
-0 -0 -0 -0 -0 -0 -0 -0 -0 -0 -0 -0 -0 -0 -0 -0 -0 -0 -0 -0 -0 -0 -0 -0 -0 0 0 0 0 0 0 0 0 0 0 0 0 0 0 0 0 0 0 0 0 0 0 0 0 0 0 0 0 0 1 1 1 1 1 1 1 1 1 1 1 1 1 1 1 1 1 1 1 1 1 1 1 1 1 1 1 1 1 1 1 1
-1 -1 -1 -1 -1 -1 -1 -1 -1 -0 -0 -0 -0 -0 -0 -0 -0 -0 -0 -0 -0 -0 -0 -0 -0 -0 -0 -0 -0 0 0 0 0 0 0 0 0 0 0 0 0 0 -0 -0 -0 -0 -0 -0 0 0 0 0 0 0 0 0 0 0 1 1 1 1 1 1 1 1 1 1 1 1 1 1 1 1 1 1 1 1 1 1 1 1 1 1 1 1
-1 -1 -1 -1 -1 -1 -1 -1 -1 -1 -1 -1 -1 -1 -1 -1 -0 -0 -0 -0 -0 -0 -0 -0 -0 -0 -0 -0 -0 -0 -0 -0 -0 -0 -0 0 0 0 0 0 -0 -0 -0 -0 -0 -0 -0 -0 -0 -0 -0 0 0 0 0 0 0 0 0 0 0 0 1 1 1 1 1 1 1 1 1 1 1 1 1 1 1 1 1 1 1 1 1 1 1 1
-1 -1 -1 -1 -1 -1 -1 -1 -1 -1 -1 -1 -1 -1 -1 -1 -1 -1 -1 -1 -1 -1 -0 -0 -0 -0 -0 -0 -0 -0 -0 -0 -0 -0 -0 -0 -0 -0 -0 -0 -0 -0 -0 -0 -0 -0 -0 -0 -0 -0 -0 -0 -0 0 0 0 0 0 0 0 0 0 0 0 0 0 1 1 1 1 1 1 1 1 1 1 1 1 1 1 1 1 1 1 1 1
-2 -1 -1 -1 -1 -1 -1 -1 -1 -1 -1 -1 -1 -1 -1 -1 -1 -1 -1 -1 -1 -1 -1 -1 -1 -0 -0 -0 -0 -0 -0 -0 -0 -0 -0 -0 -0 -0 -0 -0 -0 -0 -0 -0 -0 -0 -0 -0 -0 -0 -0 -0 -0 -0 -0 -0 -0 0 0 0 0 0 0 0 0 0 0 0 0 0 0 1 1 0 0 0 0 0 0 0 1 1 1 1 1 1
-2 -2 -2 -2 -1 -1 -1 -1 -1 -1 -1 -1 -1 -1 -1 -1 -1 -1 -1 -1 -1 -1 -1 -1 -1 -1 -1 -1 -1 -1 -0 -0 -0 -0 -0 -0 -0 -0 -0 -0 -0 -0 -0 -0 -0 -0 -0 -0 -0 -0 -0 -0 -0 -0 -0 -0 -0 -0 -0 -0 -0 -0 0 0 0 0 0 0 0 0 0 0 0 0 0 0 0 0 0 0 0 0 0 0 0 1
-2 -2 -2 -2 -2 -2 -1 -1 -1 -1 -1 -1 -1 -1 -1 -1 -1 -1 -1 -1 -1 -1 -1 -1 -1 -1 -1 -1 -1 -1 -1 -1 -1 -1 -1 -1 -0 -0 -1 -1 -1 -1 -1 -1 -1 -0 -0 -1 -0 -0 -0 -0 -0 -0 -0 -0 -0 -0 -0 -0 -0 -0 -0 -0 0 0 0 0 0 0 0 0 0 0 0 0 0 0 0 0 0 0 0 0 0 0
Height
3030 3029 3028 3026 3025 3024 3022 3021 3019 3017 3015 3014 3012 3010 3008 3005 3003 3001 2999 2997 2994 2993 2991 2989 2988 2986 2984 2982 2980 2977 2975 2973 2971 2969 2968 2966 2964 2962 2961 2959 2956 2954 2951 2949 2948 2947 2947 2947 2947 2947 2947 2948 2949 2951 2952 2953 2954 2955 2956 2957 2959 2961 2964 2966 2969 2971 2974 2978 2981 2984 2987 2990 2992 2995 2997 2999 3002 3004 3006 3007 3009 3012 3014 3017 3019 3021
3030 3029 3028 3027 3025 3024 3023 3021 3019 3018 3016 3014 3012 3010 3008 3006 3004 3001 2999 2997 2994 2993 2991 2989 2987 2985 2984 2982 2979 2978 2975 2973 2971 2969 2968 2967 2965 2963 2962 2960 2958 2956 2953 2951 2950 2949 2949 2949 2949 2949 2950 2951 2951 2953 2954 2955 2956 2957 2958 2959 2961 2963 2965 2968 2970 2973 2976 2979 2983 2986 2989 2991 2994 2996 2999 3000 3002 3003 3005 3007 3009 3012 3014 3017 3019 3021
3031 3030 3029 3028 3026 3025 3023 3022 3020 3018 3016 3014 3013 3010 3009 3006 3004 3002 2999 2997 2995 2993 2991 2989 2987 2985 2984 2982 2980 2978 2976 2974 2972 2970 2969 2968 2966 2964 2963 2962 2960 2958 2955 2954 2952 2952 2952 2952 2952 2952 2952 2953 2954 2955 2956 2957 2958 2959 2960 2961 2963 2965 2968 2970 2973 2975 2978 2982 2985 2988 2989 2991 2994 2996 2998 3000 3002 3004 3006 3008 3010 3012 3014 3017 3019 3021
3031 3030 3029 3028 3027 3026 3024 3023 3021 3019 3017 3015 3013 3011 3009 3007 3005 3002 3000 2998 2995 2993 2991 2989 2987 2985 2984 2982 2980 2978 2976 2974 2972 2970 2969 2969 2967 2965 2964 2963 2961 2959 2958 2956 2955 2955 2954 2954 2954 2954 2954 2955 2956 2957 2958 2959 2960 2961 2962 2964 2966 2968 2970 2973 2975 2978 2982 2985 2987 2988 2989 2991 2994 2997 2999 3001 3003 3005 3007 3009 3011 3013 3015 3017 3019 3021
3032 3031 3030 3029 3028 3026 3025 3023 3022 3020 3018 3016 3014 3012 3010 3008 3006 3004 3001 2999 2997 2994 2992 2989 2987 2986 2984 2982 2980 2978 2976 2974 2973 2971 2970 2969 2968 2966 2965 2964 2963 2961 2960 2959 2958 2957 2957 2956 2956 2956 2957 2958 2959 2960 2961 2962 2963 2964 2965 2966 2968 2970 2973 2975 2978 2981 2985 2986 2986 2987 2989 2993 2996 2999 3001 3003 3004 3006 3008 3010 3012 3014 3017 3018 3019 3021
3033 3032 3031 3030 3029 3027 3026 3024 3023 3021 3019 3017 3015 3013 3011 3009 3007 3005 3003 3000 2998 2995 2993 2990 2988 2986 2985 2983 2981 2979 2977 2975 2974 2972 2971 2970 2969 2968 2966 2965 2964 2964 2963 2963 2962 2960 2959 2959 2959 2959 2960 2961 2962 2963 2964 2965 2966 2967 2968 2970 2971 2974 2976 2978 2980 2982 2983 2985 2987 2989 2993 2996 2998 3000 3003 3004 3006 3008 3009 3012 3014 3016 3018 3019 3020 3021
3034 3032 3031 3030 3029 3028 3026 3025 3024 3022 3020 3018 3016 3014 3012 3010 3008 3006 3004 3001 2999 2996 2994 2991 2989 2988 2986 2984 2982 2980 2978 2976 2974 2973 2972 2971 2970 2969 2968 2967 2966 2965 2965 2965 2964 2963 2962 2962 2962 2963 2963 2964 2964 2965 2966 2967 2969 2970 2972 2973 2974 2976 2978 2979 2981 2984 2985 2988 2990 2993 2996 2998 3000 3002 3004 3006 3008 3009 3011 3013 3015 3017 3018 3019 3020 3021
3034 3033 3032 3031 3030 3029 3027 3026 3024 3023 3021 3019 3017 3015 3013 3011 3009 3007 3004 3003 3000 2997 2995 2993 2991 2989 2987 2985 2983 2981 2979 2976 2975 2974 2973 2972 2971 2971 2970 2969 2968 2967 2967 2966 2966 2966 2965 2965 2965 2966 2966 2967 2968 2969 2969 2970 2971 2973 2974 2975 2977 2978 2979 2981 2984 2986 2989 2991 2994 2996 2998 3000 3003 3004 3007 3008 3010 3011 3013 3014 3016 3018 3019 3019 3020 3022
3035 3034 3033 3032 3031 3030 3028 3027 3025 3024 3022 3020 3018 3016 3014 3012 3010 3008 3006 3004 3001 2999 2996 2994 2992 2990 2988 2986 2984 2982 2980 2978 2976 2975 2974 2974 2973 2973 2972 2971 2970 2969 2969 2968 2968 2968 2968 2968 2968 2969 2969 2970 2971 2971 2971 2972 2973 2975 2976 2978 2979 2980 2981 2983 2986 2989 2991 2994 2997 2999 3001 3003 3005 3007 3009 3010 3011 3013 3014 3015 3017 3018 3019 3020 3021 3022
3036 3035 3034 3033 3032 3031 3029 3028 3026 3025 3023 3022 3019 3018 3016 3014 3012 3010 3008 3005 3002 3000 2998 2995 2993 2991 2989 2988 2985 2983 2982 2980 2978 2977 2975 2975 2975 2974 2974 2973 2973 2972 2971 2971 2970 2970 2969 2970 2970 2971 2972 2972 2972 2973 2973 2974 2976 2978 2980 2982 2983 2984 2985 2986 2988 2991 2994 2997 2999 3001 3003 3005 3007 3009 3010 3012 3013 3014 3015 3016 3017 3018 3019 3020 3021 3022
3037 3036 3035 3034 3033 3031 3030 3029 3027 3025 3024 3023 3021 3019 3018 3015 3013 3011 3009 3006 3004 3001 2999 2997 2995 2993 2991 2990 2988 2986 2984 2983 2981 2979 2979 2978 2977 2976 2975 2975 2975 2975 2975 2974 2974 2973 2973 2972 2972 2973 2973 2974 2974 2975 2976 2977 2979 2981 2983 2985 2987 2989 2989 2991 2993 2996 2998 3000 3003 3004 3006 3008 3009 3011 3012 3013 3014 3015 3015 3016 3017 3018 3019 3020 3021 3022
3037 3036 3035 3034 3033 3032 3031 3029 3028 3027 3025 3024 3023 3021 3019 3017 3015 3013 3010 3008 3006 3003 3001 2999 2997 2996 2994 2993 2991 2989 2988 2986 2985 2984 2983 2982 2980 2979 2978 2977 2977 2978 2979 2979 2978 2978 2978 2978 2977 2977 2977 2977 2978 2978 2979 2980 2982 2984 2985 2989 2991 2993 2994 2995 2998 3000 3001 3003 3004 3006 3008 3009 3010 3011 3012 3013 3014 3014 3015 3017 3018 3019 3020 3021 3021 3022
3038 3037 3036 3035 3034 3033 3032 3030 3029 3028 3027 3025 3024 3022 3019 3018 3016 3014 3012 3010 3008 3005 3003 3002 3000 2999 2998 2996 2995 2993 2992 2990 2990 2989 2988 2986 2985 2984 2984 2983 2982 2981 2981 2981 2982 2982 2983 2983 2983 2983 2982 2981 2981 2981 2981 2983 2984 2986 2988 2991 2994 2995 2997 2999 3000 3001 3003 3004 3005 3006 3008 3009 3010 3010 3011 3012 3014 3015 3016 3017 3019 3019 3020 3021 3022 3023
3038 3037 3037 3036 3035 3034 3033 3032 3030 3029 3027 3026 3024 3022 3021 3019 3018 3016 3014 3012 3010 3008 3006 3004 3003 3001 3000 2999 2998 2997 2995 2994 2994 2993 2992 2990 2989 2988 2988 2987 2986 2985 2984 2983 2983 2983 2984 2984 2984 2984 2984 2984 2984 2984 2984 2985 2986 2988 2990 2992 2994 2995 2996 2997 2999 3001 3003 3004 3005 3006 3008 3009 3010 3011 3012 3014 3015 3016 3017 3018 3019 3020 3021 3022 3023 3024
3038 3038 3037 3036 3035 3034 3034 3032 3031 3029 3028 3026 3025 3023 3022 3021 3019 3018 3016 3014 3012 3010 3009 3007 3005 3004 3003 3002 3001 3000 2999 2998 2997 2996 2995 2994 2992 2991 2991 2991 2990 2989 2988 2987 2986 2986 2987 2987 2987 2987 2988 2988 2988 2988 2988 2989 2990 2992 2994 2996 2997 2998 2999 3000 3002 3003 3004 3006 3007 3008 3009 3010 3011 3013 3014 3015 3016 3017 3018 3019 3020 3021 3022 3023 3024 3025
3039 3038 3038 3037 3036 3035 3034 3033 3032 3030 3029 3027 3026 3025 3024 3023 3021 3020 3019 3017 3015 3013 3011 3009 3008 3006 3005 3004 3004 3003 3002 3001 3000 2999 2998 2997 2995 2995 2995 2994 2994 2993 2992 2991 2991 2991 2991 2991 2992 2992 2993 2993 2993 2993 2993 2994 2995 2997 2999 3000 3002 3003 3003 3004 3005 3006 3006 3008 3009 3010 3011 3012 3013 3014 3015 3017 3018 3019 3019 3020 3021 3022 3023 3024 3025 3026
3039 3039 3038 3037 3036 3035 3035 3034 3032 3031 3030 3029 3027 3026 3025 3024 3023 3022 3020 3019 3018 3016 3014 3013 3010 3009 3008 3007 3006 3006 3005 3004 3003 3002 3001 3000 2999 2998 2998 2998 2997 2996 2996 2995 2994 2994 2994 2995 2995 2996 2997 2998 2998 2998 2998 2999 3000 3001 3003 3004 3005 3005 3006 3007 3008 3009 3009 3011 3012 3013 3014 3014 3015 3016 3017 3018 3019 3020 3020 3021 3022 3023 3023 3024 3024 3025
3039 3039 3038 3038 3037 3036 3035 3034 3033 3032 3031 3030 3029 3028 3027 3025 3024 3024 3023 3021 3020 3019 3017 3015 3013 3011 3010 3009 3009 3008 3008 3006 3005 3005 3004 3003 3002 3001 3001 3001 3001 3000 2999 2999 2998 2998 2998 2998 2998 2999 3000 3001 3002 3002 3003 3003 3004 3005 3005 3006 3007 3008 3009 3010 3011 3012 3013 3014 3014 3015 3016 3016 3017 3018 3018 3019 3020 3020 3021 3021 3022 3022 3023 3023 3024 3024
3039 3039 3039 3038 3037 3037 3036 3035 3034 3033 3032 3031 3030 3029 3028 3027 3026 3025 3024 3023 3022 3020 3019 3017 3015 3014 3013 3012 3011 3011 3010 3009 3009 3008 3007 3005 3005 3004 3004 3004 3004 3003 3002 3002 3001 3001 3000 3001 3001 3002 3004 3005 3006 3007 3007 3007 3007 3008 3008 3009 3010 3011 3012 3013 3014 3014 3015 3015 3016 3017 3018 3018 3019 3019 3020 3020 3021 3021 3022 3022 3022 3023 3023 3023 3024 3024
3039 3039 3039 3038 3038 3037 3037 3036 3035 3034 3033 3032 3031 3030 3029 3028 3028 3027 3026 3025 3024 3022 3021 3019 3017 3016 3014 3014 3013 3013 3013 3012 3012 3011 3009 3008 3008 3007 3007 3007 3007 3006 3005 3004 3004 3004 3004 3004 3004 3005 3007 3009 3010 3011 3010 3010 3010 3011 3011 3011 3012 3013 3014 3015 3015 3016 3017 3017 3018 3019 3019 3020 3020 3021 3021 3022 3022 3023 3023 3023 3023 3023 3024 3024 3024 3024
3040 3039 3039 3039 3038 3038 3037 3037 3036 3035 3034 3033 3032 3031 3030 3030 3029 3028 3027 3026 3025 3024 3023 3021 3019 3018 3017 3016 3015 3015 3015 3015 3014 3014 3012 3011 3010 3009 3010 3010 3009 3009 3008 3007 3007 3007 3007 3007 3007 3008 3010 3011 3012 3012 3012 3013 3013 3013 3014 3014 3014 3015 3015 3016 3017 3018 3019 3019 3019 3020 3021 3021 3022 3022 3022 3023 3023 3024 3024 3024 3024 3024 3024 3024 3024 3025
3040 3039 3039 3039 3039 3038 3038 3037 3037 3036 3035 3034 3034 3033 3032 3031 3030 3029 3028 3027 3027 3026 3024 3023 3021 3020 3019 3018 3018 3017 3017 3017 3017 3016 3015 3013 3012 3012 3012 3012 3012 3011 3010 3010 3010 3010 3010 3010 3010 3011 3012 3013 3014 3014 3014 3015 3015 3016 3016 3016 3017 3017 3017 3018 3019 3019 3020 3020 3021 3021 3022 3022 3022 3023 3023 3024 3024 3024 3024 3025 3025 3025 3025 3025 3026 3026
3040 3040 3039 3039 3039 3039 3038 3038 3038 3037 3036 3035 3035 3034 3033 3032 3031 3030 3029 3029 3028 3027 3026 3024 3023 3022 3022 3021 3020 3019 3019 3019 3019 3018 3017 3015 3014 3014 3014 3014 3014 3014 3013 3013 3013 3013 3014 3014 3014 3014 3014 3015 3016 3016 3017 3017 3017 3018 3018 3018 3019 3019 3019 3019 3020 3020 3021 3022 3022 3023 3023 3024 3024 3024 3024 3024 3024 3025 3025 3025 3026 3026 3026 3026 3027 3027
3040 3040 3040 3040 3039 3039 3039 3039 3038 3038 3037 3036 3036 3035 3034 3033 3032 3031 3031 3030 3029 3028 3027 3026 3025 3024 3024 3023 3022 3021 3021 3020 3020 3020 3019 3018 3017 3016 3016 3017 3017 3016 3015 3015 3015 3016 3016 3017 3017 3017 3017 3017 3018 3018 3018 3019 3019 3019 3019 3020 3020 3021 3021 3021 3022 3022 3023 3023 3024 3024 3024 3025 3025 3025 3025 3025 3025 3026 3026 3026 3026 3027 3027 3027 3027 3028
3040 3040 3040 3040 3039 3039 3039 3039 3039 3038 3038 3037 3036 3036 3035 3034 3034 3033 3032 3031 3030 3029 3029 3028 3027 3027 3026 3025 3024 3024 3023 3022 3022 3022 3021 3020 3019 3018 3018 3018 3018 3018 3017 3017 3018 3018 3019 3019 3019 3019 3019 3019 3019 3020 3020 3020 3021 3021 3021 3022 3022 3022 3023 3023 3023 3024 3024 3024 3025 3025 3026 3026 3026 3026 3027 3027 3027 3027 3027 3027 3027 3028 3028 3028 3028 3028
3040 3040 3040 3040 3040 3039 3039 3039 3039 3039 3038 3038 3037 3036 3036 3035 3034 3034 3033 3032 3031 3030 3030 3030 3029 3029 3028 3027 3027 3026 3025 3024 3024 3024 3023 3022 3021 3020 3020 3020 3020 3020 3019 3019 3019 3019 3020 3020 3020 3020 3021 3021 3021 3021 3022 3022 3022 3023 3023 3023 3024 3024 3024 3024 3025 3025 3025 3026 3026 3026 3026 3027 3027 3027 3027 3028 3028 3028 3028 3028 3028 3028 3028 3028 3028 3028
3040 3040 3040 3040 3040 3040 3039 3039 3039 3039 3038 3038 3037 3037 3036 3035 3035 3034 3034 3033 3032 3032 3032 3032 3031 3030 3030 3029 3029 3028 3027 3026 3026 3025 3025 3024 3024 3023 3022 3022 3022 3021 3021 3021 3021 3021 3021 3021 3021 3022 3022 3022 3022 3023 3023 3023 3024 3024 3024 3024 3025 3025 3025 3026 3026 3026 3026 3027 3027 3027 3027 3027 3028 3028 3028 3028 3028 3028 3028 3028 3028 3028 3028 3028 3028 3028
3040 3040 3040 3040 3040 3040 3040 3039 3039 3039 3039 3038 3038 3037 3036 3036 3036 3035 3035 3034 3034 3034 3034 3033 3033 3032 3031 3031 3030 3029 3029 3028 3028 3027 3027 3026 3025 3024 3024 3024 3023 3023 3023 3023 3023 3023 3023 3023 3023 3023 3023 3023 3023 3024 3024 3024 3024 3025 3025 3025 3026 3026 3026 3026 3027 3027 3027 3027 3028 3028 3028 3028 3028 3028 3028 3029 3029 3029 3029 3029 3029 3029 3029 3028 3028 3029
3040 3040 3040 3040 3040 3040 3040 3039 3039 3039 3039 3038 3038 3037 3036 3036 3037 3037 3036 3035 3035 3035 3035 3035 3034 3034 3033 3032 3032 3031 3030 3030 3029 3029 3029 3028 3027 3026 3026 3025 3025 3025 3025 3025 3024 3024 3024 3024 3024 3024 3024 3025 3025 3025 3025 3025 3025 3026 3026 3026 3026 3027 3027 3027 3027 3028 3028 3028 3028 3028 3029 3029 3029 3029 3029 3029 3029 3029 3029 3029 3029 3029 3029 3029 3029 3029
3040 3040 3040 3040 3040 3040 3040 3040 3039 3039 3039 3039 3038 3037 3037 3037 3038 3038 3037 3037 3036 3036 3036 3036 3035 3035 3034 3034 3033 3033 3032 3031 3031 3030 3030 3030 3029 3028 3028 3027 3027 3027 3027 3027 3027 3027 3026 3026 3026 3026 3026 3026 3026 3026 3026 3027 3027 3027 3027 3027 3028 3028 3028 3028 3028 3029 3029 3029 3029 3029 3029 3029 3029 3029 3029 3029 3029 3029 3029 3029 3029 3029 3029 3029 3029 3029
3039 3040 3040 3040 3040 3040 3040 3039 3039 3039 3039 3039 3038 3038 3038 3038 3038 3038 3038 3038 3037 3037 3037 3037 3036 3036 3035 3035 3035 3034 3033 3033 3032 3032 3032 3031 3031 3030 3030 3029 3029 3029 3029 3029 3029 3029 3028 3028 3028 3028 3027 3028 3028 3028 3028 3028 3028 3028 3029 3029 3029 3029 3029 3029 3029 3029 3029 3029 3030 3030 3030 3030 3030 3030 3030 3029 3029 3029 3029 3029 3029 3029 3029 3029 3029 3029
3039 3039 3039 3039 3039 3039 3039 3039 3039 3039 3039 3039 3039 3039 3039 3039 3039 3039 3039 3038 3038 3038 3038 3038 3037 3037 3036 3036 3036 3035 3034 3034 3034 3033 3033 3033 3032 3032 3031 3031 3031 3030 3030 3030 3030 3030 3030 3029 3029 3029 3029 3029 3029 3029 3029 3029 3029 3029 3029 3029 3030 3030 3030 3030 3030 3030 3030 3030 3030 3030 3030 3030 3030 3030 3030 3030 3030 3029 3029 3029 3029 3029 3029 3029 3029 3029
3039 3039 3039 3039 3039 3039 3039 3039 3039 3039 3039 3039 3039 3039 3039 3039 3039 3039 3039 3039 3039 3039 3038 3038 3038 3038 3038 3037 3037 3037 3036 3035 3035 3034 3034 3034 3034 3033 3033 3033 3033 3032 3032 3032 3032 3032 3031 3031 3031 3030 3030 3030 3030 3030 3030 3030 3030 3030 3030 3031 3031 3031 3031 3031 3031 3031 3031 3031 3031 3030 3030 3030 3030 3030 3030 3030 3030 3030 3030 3029 3029 3029 3029 3029 3029 3029
3038 3039 3039 3039 3039 3039 3039 3039 3039 3039 3039 3040 3040 3040 3039 3039 3039 3039 3039 3039 3039 3039 3039 3039 3039 3039 3039 3038 3038 3038 3037 3036 3036 3036 3035 3035 3035 3034 3034 3034 3034 3034 3034 3034 3033 3033 3033 3032 3032 3032 3032 3032 3032 3032 3032 3032 3032 3032 3032 3032 3032 3032 3032 3031 3031 3031 3031 3031 3031 3031 3031 3031 3031 3030 3030 3030 3030 3030 3030 3030 3029 3029 3029 3029 3029 3029
3038 3038 3038 3039 3039 3039 3039 3039 3039 3039 3040 3040 3040 3040 3040 3040 3039 3039 3039 3039 3039 3039 3039 3039 3039 3039 3039 3039 3039 3038 3038 3037 3037 3037 3036 3036 3036 3035 3035 3035 3035 3035 3035 3034 3034 3034 3034 3034 3034 3033 3033 3033 3033 3033 3033 3033 3033 3033 3033 3032 3032 3032 3032 3032 3032 3032 3032 3032 3032 3031 3031 3031 3031 3031 3030 3030 3030 3030 3030 3030 3029 3029 3029 3029 3029 3029
3037 3037 3038 3038 3038 3039 3039 3039 3039 3039 3040 3040 3040 3040 3040 3040 3040 3040 3040 3040 3040 3040 3040 3040 3040 3039 3039 3039 3039 3039 3039 3038 3038 3038 3037 3037 3037 3037 3036 3036 3036 3036 3035 3035 3035 3035 3035 3034 3034 3034 3034 3034 3034 3034 3034 3034 3034 3034 3034 3033 3033 3033 3033 3033 3033 3033 3033 3032 3032 3032 3032 3031 3031 3031 3031 3031 3030 3030 3030 3029 3029 3029 3029 3029 3029 3029
3036 3037 3037 3038 3038 3038 3039 3039 3039 3039 3039 3040 3040 3040 3040 3040 3040 3040 3040 3040 3040 3040 3040 3040 3040 3040 3039 3039 3039 3039 3039 3039 3038 3038 3038 3038 3038 3038 3037 3037 3037 3037 3036 3036 3036 3036 3036 3035 3035 3035 3035 3035 3035 3034 3034 3034 3034 3034 3034 3034 3034 3034 3034 3034 3034 3033 3033 3033 3033 3033 3032 3032 3032 3031 3031 3031 3030 3030 3030 3029 3029 3029 3029 3029 3029 3028
3036 3036 3037 3037 3037 3038 3038 3038 3039 3039 3039 3039 3040 3040 3040 3040 3040 3040 3040 3040 3040 3040 3040 3040 3040 3040 3040 3039 3039 3039 3039 3039 3039 3038 3038 3038 3038 3038 3038 3038 3038 3038 3038 3037 3037 3037 3037 3036 3036 3036 3036 3036 3035 3035 3035 3035 3035 3035 3035 3035 3035 3035 3034 3034 3034 3034 3034 3034 3033 3033 3033 3032 3032 3032 3031 3031 3031 3030 3030 3029 3029 3029 3029 3029 3029 3028
3035 3036 3036 3037 3037 3037 3038 3038 3039 3039 3039 3039 3039 3039 3040 3040 3040 3040 3040 3040 3040 3040 3040 3040 3040 3040 3040 3039 3039 3039 3039 3039 3039 3039 3039 3039 3039 3039 3039 3039 3038 3038 3038 3038 3038 3038 3038 3037 3037 3037 3036 3036 3036 3036 3036 3036 3035 3035 3035 3035 3035 3035 3035 3035 3035 3035 3034 3034 3034 3034 3033 3033 3033 3032 3032 3031 3031 3030 3030 3030 3029 3029 3029 3029 3028 3028
3034 3035 3035 3036 3037 3037 3037 3038 3038 3039 3039 3039 3039 3039 3039 3039 3040 3040 3040 3040 3040 3040 3040 3040 3040 3040 3040 3040 3039 3039 3039 3039 3039 3039 3039 3039 3039 3039 3039 3039 3039 3039 3039 3039 3039 3038 3038 3038 3038 3038 3037 3037 3037 3037 3036 3036 3036 3036 3036 3036 3035 3035 3035 3035 3035 3035 3035 3034 3034 3034 3034 3034 3033 3033 3032 3032 3031 3031 3030 3030 3029 3029 3029 3028 3028 3028
3034 3034 3035 3035 3036 3037 3037 3038 3038 3038 3039 3039 3039 3039 3039 3039 3040 3040 3040 3040 3040 3040 3040 3040 3040 3040 3040 3040 3039 3039 3039 3039 3039 3039 3039 3039 3039 3039 3039 3039 3039 3039 3039 3039 3039 3039 3039 3039 3038 3038 3038 3038 3038 3037 3037 3037 3036 3036 3036 3036 3036 3036 3036 3036 3035 3035 3035 3035 3035 3034 3034 3034 3034 3033 3033 3032 3032 3031 3031 3030 3030 3029 3029 3028 3028 3028
3033 3034 3034 3035 3036 3036 3037 3037 3037 3038 3038 3039 3039 3039 3039 3039 3040 3040 3040 3040 3040 3040 3040 3040 3040 3040 3040 3040 3039 3039 3039 3039 3039 3039 3039 3039 3039 3039 3039 3039 3039 3039 3039 3039 3039 3039 3039 3039 3039 3039 3038 3038 3038 3038 3038 3037 3037 3037 3037 3036 3036 3036 3036 3036 3035 3035 3035 3035 3035 3034 3034 3034 3034 3034 3033 3033 3032 3032 3031 3031 3030 3029 3029 3029 3028 3028
3033 3033 3034 3034 3035 3036 3036 3037 3037 3037 3038 3038 3039 3039 3039 3039 3039 3040 3040 3040 3040 3040 3040 3040 3040 3040 3040 3039 3039 3039 3039 3039 3039 3039 3039 3038 3038 3038 3038 3038 3038 3039 3039 3039 3039 3039 3039 3039 3039 3039 3038 3038 3038 3038 3038 3038 3037 3037 3037 3037 3036 3036 3036 3036 3036 3035 3035 3035 3035 3035 3034 3034 3034 3034 3033 3033 3032 3032 3031 3031 3030 3030 3029 3029 3028 3028
3032 3033 3033 3034 3034 3035 3036 3036 3036 3037 3037 3038 3038 3038 3039 3039 3039 3039 3039 3040 3040 3040 3040 3040 3040 3040 3039 3039 3039 3039 3039 3039 3038 3038 3038 3038 3038 3038 3038 3038 3038 3038 3038 3038 3038 3038 3038 3038 3038 3038 3038 3038 3038 3038 3038 3038 3038 3037 3037 3037 3037 3036 3036 3036 3036 3036 3035 3035 3035 3034 3034 3034 3034 3033 3033 3033 3032 3032 3031 3031 3030 3030 3029 3029 3028 3028
3031 3032 3033 3034 3034 3034 3035 3035 3036 3036 3037 3037 3037 3038 3038 3039 3039 3039 3039 3039 3039 3040 3040 3040 3040 3039 3039 3039 3039 3039 3039 3039 3038 3038 3038 3038 3038 3038 3038 3038 3038 3038 3038 3038 3038 3038 3038 3038 3038 3038 3038 3038 3038 3038 3038 3038 3037 3037 3037 3037 3037 3036 3036 3036 3036 3036 3035 3035 3035 3034 3034 3034 3034 3033 3033 3033 3032 3032 3031 3031 3030 3030 3029 3029 3028 3028
3031 3031 3032 3033 3033 3034 3034 3035 3035 3036 3036 3037 3037 3037 3038 3038 3039 3039 3039 3039 3039 3039 3039 3039 3039 3039 3039 3039 3039 3039 3038 3038 3038 3038 3038 3037 3037 3037 3037 3037 3037 3037 3037 3037 3038 3038 3038 3038 3038 3038 3038 3037 3037 3037 3037 3037 3037 3037 3037 3037 3036 3036 3036 3036 3036 3036 3035 3035 3035 3034 3034 3034 3034 3033 3033 3032 3032 3031 3031 3030 3030 3030 3029 3029 3028 3027
3030 3030 3031 3032 3033 3033 3034 3034 3035 3035 3036 3036 3036 3037 3037 3038 3038 3038 3039 3039 3039 3039 3039 3039 3039 3039 3039 3039 3039 3038 3038 3038 3038 3037 3037 3037 3037 3037 3037 3037 3037 3037 3037 3037 3037 3037 3037 3037 3037 3037 3037 3037 3037 3037 3037 3037 3036 3036 3036 3036 3036 3036 3035 3035 3035 3035 3035 3035 3034 3034 3034 3034 3033 3033 3032 3032 3032 3031 3031 3030 3030 3029 3029 3028 3028 3027
3029 3030 3030 3031 3032 3032 3033 3034 3034 3035 3035 3035 3036 3036 3037 3037 3038 3038 3038 3038 3038 3039 3039 3039 3039 3039 3039 3038 3038 3038 3038 3038 3037 3037 3037 3037 3037 3037 3037 3036 3036 3036 3036 3036 3036 3037 3037 3037 3037 3037 3037 3037 3036 3036 3036 3036 3036 3036 3036 3035 3035 3035 3035 3035 3035 3035 3034 3034 3034 3034 3034 3033 3033 3032 3032 3032 3031 3031 3030 3030 3029 3029 3028 3028 3027 3026
3028 3029 3029 3030 3031 3032 3032 3033 3034 3034 3034 3035 3035 3036 3036 3037 3037 3037 3037 3038 3038 3038 3038 3038 3038 3038 3038 3038 3038 3037 3037 3037 3037 3037 3036 3036 3036 3036 3036 3036 3036 3036 3036 3036 3036 3036 3036 3036 3036 3036 3036 3036 3036 3036 3036 3036 3035 3035 3035 3035 3035 3034 3034 3034 3034 3034 3034 3034 3034 3033 3033 3033 3032 3032 3032 3031 3031 3030 3030 3029 3029 3029 3028 3027 3027 3026
3028 3028 3029 3029 3030 3031 3032 3032 3033 3033 3034 3034 3035 3035 3035 3036 3036 3036 3037 3037 3037 3037 3037 3037 3038 3038 3038 3037 3037 3037 3037 3036 3036 3036 3036 3036 3036 3036 3036 3036 3036 3035 3035 3035 3035 3036 3036 3036 3036 3036 3036 3036 3036 3035 3035 3035 3035 3035 3034 3034 3034 3034 3034 3034 3034 3034 3034 3033 3033 3033 3032 3032 3032 3032 3031 3031 3030 3030 3029 3029 3029 3028 3027 3027 3026 3025
3027 3028 3028 3029 3029 3030 3031 3031 3032 3033 3033 3034 3034 3034 3034 3035 3035 3035 3036 3036 3036 3036 3036 3036 3037 3037 3037 3037 3036 3036 3036 3036 3036 3035 3035 3035 3035 3035 3035 3035 3035 3035 3035 3035 3035 3035 3035 3035 3035 3035 3035 3035 3035 3035 3035 3034 3034 3034 3034 3034 3034 3034 3033 3033 3033 3033 3033 3033 3032 3032 3032 3031 3031 3031 3030 3030 3030 3029 3029 3028 3028 3027 3027 3026 3025 3025
Wind_Speed
26 27 27 28 27 27 26 26 26 27 27 27 28 28 28 28 28 27 26 24 23 21 20 19 18 18 18 19 20 20 21 21 21 19 17 16 17 19 21 22 22 21 20 20 19 18 17 17 16 16 14 13 11 10 9 9 9 10 13 16 19 22 24 27 28 30 33 35 37 37 36 34 32 33 37 41 44 45 44 42 40 38 34 32 29 28
26 27 28 28 28 28 28 28 28 28 28 28 29 29 29 29 29 28 27 26 24 22 20 19 18 18 18 18 18 19 20 21 22 20 17 14 14 17 20 22 23 23 24 24 23 21 20 19 19 18 17 15 13 12 10 9 9 10 13 16 20 23 25 27 29 31 33 35 36 36 35 34 33 35 38 42 44 43 42 40 38 35 33 30 28 26
26 27 28 28 28 29 29 29 29 29 29 29 29 30 30 30 29 29 28 27 25 23 22 20 18 17 17 17 17 18 20 22 22 21 18 13 12 14 19 21 23 24 26 27 27 26 24 23 21 20 19 17 15 13 11 10 9 11 14 18 22 25 27 28 29 30 32 33 35 35 34 34 34 36 39 41 41 40 38 36 33 31 29 27 25 24
25 26 27 28 28 29 29 30 30 30 30 30 30 30 30 30 30 29 29 28 26 25 23 21 19 17 16 16 16 18 21 22 23 22 19 14 11 13 17 20 22 24 27 29 30 29 27 26 25 23 21 19 17 15 12 10 10 12 16 21 24 27 28 29 29 29 31 34 35 35 33 33 34 37 38 38 37 36 34 31 28 26 24 22 22 23
24 25 26 27 28 29 29 30 31 31 31 31 31 31 30 30 30 29 29 28 27 25 24 22 19 18 16 16 17 20 22 22 22 21 19 15 13 13 16 19 21 24 27 29 29 28 29 28 28 26 24 22 19 16 13 11 11 14 19 23 27 28 29 29 29 31 34 37 36 34 31 32 34 35 35 34 32 30 28 26 24 23 21 20 21 22
23 24 25 26 27 28 29 30 31 31 32 32 32 32 31 31 30 30 29 29 28 27 25 23 21 19 18 18 20 21 22 22 21 20 19 17 15 15 16 18 20 23 25 26 26 26 27 29 29 28 26 23 20 17 14 12 12 16 21 25 28 29 28 28 30 33 37 38 37 34 32 32 32 32 30 29 27 26 24 23 22 21 21 21 22 22
22 23 24 25 26 27 28 29 30 31 32 33 33 33 32 32 31 31 30 30 29 28 27 25 24 22 22 22 23 23 22 21 20 20 19 18 17 16 16 18 20 22 23 23 23 23 26 28 28 28 26 23 20 17 14 12 13 16 21 25 27 27 27 27 30 34 37 38 37 35 33 31 29 27 25 24 24 22 21 20 20 20 20 21 22 21
21 22 23 24 25 26 27 28 29 30 32 33 34 34 33 33 33 32 32 31 30 30 29 29 28 27 26 26 26 25 24 22 21 21 20 19 18 18 18 19 20 22 22 22 22 23 24 25 26 25 24 22 19 16 14 12 13 16 19 22 23 23 23 26 31 35 38 38 37 35 31 28 25 23 23 22 22 21 20 19 19 19 20 21 21 20
20 21 21 22 23 25 26 27 28 29 31 32 34 34 34 34 34 33 33 32 32 32 32 32 31 31 30 30 29 28 27 25 23 21 18 17 17 18 18 19 20 21 21 21 23 24 24 23 23 23 22 20 18 16 14 13 12 14 16 17 16 17 19 25 32 39 41 39 36 33 29 25 23 23 22 22 21 20 20 19 19 20 20 21 20 19
18 19 20 21 22 23 24 26 27 29 30 31 33 34 35 35 34 34 33 33 33 33 34 34 34 33 33 33 32 31 30 27 24 21 18 16 16 17 17 18 18 19 20 21 22 24 25 24 23 21 20 19 17 15 14 13 12 12 13 13 13 16 22 28 35 40 41 38 34 30 27 25 24 23 23 22 22 21 21 21 20 20 20 20 20 20
17 18 19 20 21 22 23 25 26 28 29 30 31 32 34 35 35 34 34 34 34 34 34 35 35 34 34 34 34 33 32 30 27 24 21 19 19 20 20 20 20 20 20 21 21 22 23 23 22 21 20 19 18 16 14 12 11 12 12 12 17 24 30 33 36 37 36 33 30 27 26 25 24 23 22 22 22 22 21 20 20 20 20 20 20 21
16 17 18 19 20 21 22 24 25 27 28 29 30 31 33 34 35 35 35 34 34 34 35 35 35 34 34 34 34 34 33 33 33 31 29 26 25 25 26 28 29 28 26 25 23 21 20 19 18 19 20 21 21 19 16 13 12 12 14 19 27 33 35 36 36 35 33 31 29 27 25 23 22 21 21 21 21 20 19 18 17 18 18 19 21 22
15 16 17 18 19 20 22 23 24 25 26 27 29 31 33 35 35 35 35 35 34 34 34 34 34 34 33 33 33 34 35 36 37 36 36 34 33 32 32 32 32 33 32 31 29 27 25 24 24 25 27 28 27 25 21 17 15 17 23 30 35 37 38 38 37 36 34 31 27 24 22 21 20 19 19 19 18 17 16 16 16 16 18 19 21 22
14 16 17 18 18 19 20 21 22 24 25 27 29 31 33 34 35 35 35 35 34 34 34 33 33 32 32 32 32 33 34 35 36 37 37 38 37 36 35 33 32 32 33 35 35 34 33 33 33 35 36 37 35 30 24 20 19 24 31 36 37 37 36 36 34 31 28 24 21 20 19 19 19 19 18 18 18 17 17 17 17 17 17 19 20 21
14 15 16 17 17 18 19 20 22 23 25 27 28 30 32 33 34 34 34 34 34 34 33 32 32 32 31 31 30 31 31 32 32 33 34 36 36 36 36 35 34 33 34 36 37 37 36 35 35 35 36 37 35 31 26 24 25 28 32 32 30 28 27 26 25 24 22 21 20 20 19 19 19 19 19 19 19 18 18 17 17 16 17 17 18 18
12 14 15 16 17 18 19 20 21 23 25 26 27 29 30 31 32 33 33 33 33 33 32 31 31 31 31 30 29 28 28 28 29 30 31 33 35 36 36 36 36 36 36 37 37 37 36 35 34 33 33 32 30 29 28 28 28 29 29 27 25 25 25 25 25 24 23 22 20 19 18 17 16 16 16 16 15 15 14 13 13 12 13 14 15 15
11 12 14 15 17 18 19 20 21 22 24 25 26 27 29 30 31 32 32 32 32 31 31 31 31 30 30 29 28 28 27 27 28 28 29 32 34 35 36 37 38 39 39 39 40 40 40 40 40 39 39 38 37 37 36 37 37 36 35 34 34 33 32 31 29 27 25 22 20 18 16 15 13 12 11 10 10 10 9 9 8 8 9 10 11 12
10 11 13 15 16 17 19 19 20 21 22 23 24 26 27 28 29 30 31 31 31 31 31 31 31 31 30 28 27 27 27 27 27 27 28 31 33 34 35 36 37 38 39 40 41 41 42 42 43 43 42 41 40 39 39 38 38 38 38 37 37 36 35 33 31 30 28 27 25 24 23 21 20 18 15 12 10 8 6 5 5 6 6 7 8 10
9 10 12 14 15 17 18 19 20 20 21 22 23 24 25 27 28 29 29 30 30 30 30 30 31 30 30 28 27 26 26 26 26 26 27 29 31 32 33 34 35 36 36 37 38 38 39 40 40 39 38 36 34 32 31 30 29 29 30 31 30 30 29 28 27 27 26 26 26 25 25 25 24 23 22 20 18 15 12 8 5 4 4 6 7 8
8 9 11 13 14 16 17 18 19 19 20 21 21 23 24 25 26 27 28 29 29 29 30 30 30 30 29 28 26 25 24 24 24 25 26 28 30 30 31 31 32 33 34 35 36 36 37 38 38 37 35 33 31 30 28 26 25 24 23 23 22 22 21 20 20 20 19 19 20 20 21 21 21 21 22 21 21 19 17 15 11 7 4 4 6 7
6 8 10 12 13 15 16 17 18 18 19 19 20 21 22 23 24 25 27 28 28 29 29 29 29 30 29 27 26 24 23 23 23 24 25 27 29 29 29 29 30 31 32 34 34 34 35 35 36 35 33 31 29 27 25 23 22 21 20 18 16 16 15 15 15 14 14 14 15 16 17 17 18 18 18 18 18 18 18 17 15 12 9 5 4 6
5 7 9 10 12 13 15 16 17 17 18 18 19 20 21 22 23 24 25 26 27 27 28 28 29 29 29 28 26 25 24 23 22 23 24 26 28 28 28 27 27 28 30 31 32 32 32 32 32 32 30 28 26 23 21 20 19 17 16 14 13 13 12 12 12 12 12 12 12 13 15 16 16 16 16 16 16 16 16 16 15 14 12 8 6 5
4 6 7 9 11 12 14 15 16 16 17 17 17 18 19 20 22 23 24 25 26 27 27 28 28 29 28 28 27 26 25 24 23 23 23 25 27 27 26 25 25 26 27 28 28 28 27 27 27 26 26 24 22 20 18 16 14 13 12 12 11 10 10 10 10 10 10 10 11 12 13 14 15 15 14 14 13 13 13 14 13 13 11 9 7 5
3 4 6 8 9 11 12 14 15 15 16 16 16 17 18 19 20 21 22 23 25 26 26 27 27 27 27 27 26 26 26 25 24 23 23 24 25 26 25 23 23 23 24 24 24 23 22 22 21 21 20 19 18 16 15 13 11 10 10 9 9 8 8 8 8 9 9 9 9 10 11 12 13 12 12 11 11 11 11 11 11 11 10 8 6 5
2 3 5 6 8 9 11 12 13 14 14 15 16 17 18 18 19 20 21 22 23 25 25 25 25 25 26 26 25 25 25 25 24 23 23 24 25 24 23 22 21 21 21 21 21 20 19 18 17 17 16 16 15 14 13 12 11 10 9 8 7 7 7 7 7 7 7 8 8 8 8 9 10 9 9 8 8 8 8 8 9 9 8 7 6 5
1 2 3 5 7 8 10 11 12 13 13 14 15 16 17 18 18 19 20 21 22 23 24 23 23 24 24 24 24 24 25 25 24 24 24 24 24 24 23 22 21 20 20 21 20 19 18 17 17 17 16 15 14 14 13 12 11 10 9 8 8 7 7 6 6 6 6 6 6 6 6 7 7 7 6 6 6 6 6 6 6 7 7 6 5 5
1 1 2 4 5 7 8 9 10 11 12 13 14 15 16 17 18 18 18 19 21 21 22 22 22 22 23 23 23 23 24 24 24 23 24 24 24 24 24 23 22 21 21 21 20 20 19 19 19 18 17 17 16 15 14 13 12 11 10 10 9 8 8 7 7 6 6 5 4 4 4 4 5 5 5 4 4 5 5 5 5 5 6 5 5 5
2 1 1 3 4 6 7 8 9 10 11 12 13 15 16 17 17 17 17 18 19 19 19 20 20 21 21 21 22 22 23 23 23 23 23 23 23 24 24 24 23 22 21 21 21 20 19 19 19 19 18 17 17 16 15 14 14 13 12 11 11 10 9 8 7 6 5 4 3 3 2 3 3 3 4 4 4 4 4 4 5 5 5 5 5 5
3 2 1 2 3 4 6 7 8 9 10 11 13 14 16 16 15 15 16 16 17 17 17 17 18 19 19 20 20 21 21 22 22 22 22 22 22 23 24 23 23 22 21 20 20 19 18 18 18 18 18 17 16 15 15 14 14 13 12 11 11 10 9 8 7 6 5 4 3 3 3 3 3 3 4 4 5 5 5 5 4 4 4 4 4 5
4 3 2 1 2 3 4 6 7 8 9 11 12 13 14 14 13 13 14 15 15 15 15 15 16 17 18 18 19 19 19 20 21 21 21 21 21 22 23 22 22 21 21 20 19 18 18 18 18 18 17 17 16 15 14 13 13 12 11 10 9 9 8 7 6 6 5 4 3 3 3 3 3 3 4 4 5 5 5 5 4 4 4 3 4 4
5 4 2 1 1 2 4 5 6 7 8 10 11 12 12 12 12 12 13 14 14 14 14 14 15 16 17 17 17 17 18 19 20 20 20 20 21 21 21 21 21 21 20 19 18 17 18 18 19 19 18 17 16 16 15 14 13 12 11 10 9 8 7 6 6 5 4 4 3 3 3 2 2 3 3 3 4 4 4 4 4 4 4 3 3 4
6 4 3 2 2 2 3 4 5 6 7 8 9 10 10 10 10 11 12 12 13 13 13 13 14 15 15 15 15 15 16 17 18 18 18 19 19 20 20 20 20 20 20 19 18 18 18 18 19 19 19 18 17 16 15 15 14 13 12 11 10 9 8 7 6 5 5 4 3 3 2 2 2 2 3 3 3 3 4 4 4 4 3 3 3 3
6 5 4 3 2 2 2 2 3 4 5 6 7 7 8 8 9 9 10 11 11 12 12 13 13 14 14 13 13 13 14 15 16 16 16 17 18 18 18 18 18 18 18 18 18 18 18 18 18 18 18 18 17 17 16 15 15 14 13 12 11 10 9 8 8 7 6 6 5 5 4 4 3 3 3 3 3 3 3 3 3 3 3 2 2 2
7 6 5 4 3 2 1 1 2 3 4 4 5 5 6 7 8 8 9 9 10 11 11 12 12 12 12 12 12 13 13 13 14 14 14 15 15 16 16 16 17 17 17 17 17 17 17 17 17 17 17 17 17 16 16 16 15 15 14 14 13 12 11 10 10 9 9 8 8 7 7 6 6 5 5 4 4 3 3 3 3 3 3 2 2 1
8 7 6 5 4 3 2 1 0 1 2 3 3 4 5 5 6 7 8 8 9 9 10 10 11 11 11 12 12 12 12 13 12 12 12 12 13 13 14 14 14 14 15 15 15 15 16 16 16 16 16 16 16 16 15 15 15 15 15 14 14 13 13 12 12 11 11 10 10 10 9 9 8 8 7 6 6 5 5 4 4 4 4 4 3 2
8 7 6 5 5 4 3 2 1 1 1 1 2 3 3 4 5 6 6 7 7 8 8 9 9 10 10 11 11 12 12 12 12 11 11 11 11 11 12 12 12 12 13 13 13 13 14 14 14 14 14 15 14 14 14 14 14 14 14 14 14 14 13 13 13 13 12 12 12 11 11 11 10 10 9 9 8 8 7 7 6 5 5 5 5 4
8 8 7 6 5 5 4 3 3 2 2 1 1 1 2 3 4 4 5 5 6 6 7 8 8 9 9 10 10 11 11 11 11 11 11 11 11 11 10 10 10 10 10 11 11 11 12 12 12 12 13 13 13 13 13 13 13 13 13 13 13 13 13 13 13 13 13 13 12 12 12 12 12 11 11 11 11 10 10 9 8 7 6 6 5 5
9 8 8 7 6 6 5 5 4 3 3 2 1 1 1 2 2 3 3 4 4 5 6 6 7 8 8 9 9 10 10 10 10 10 10 10 10 10 10 10 9 9 9 9 9 9 10 10 10 11 11 11 11 11 11 12 12 12 12 12 12 12 12 12 12 12 13 13 13 13 13 13 13 12 12 12 12 12 11 11 10 10 9 7 7 6
10 9 8 8 7 7 6 6 5 5 4 3 2 1 1 0 1 1 2 3 3 4 5 6 6 7 8 8 9 9 9 9 10 10 10 10 10 10 9 9 9 9 9 8 8 8 8 8 8 9 9 9 9 9 10 10 10 11 11 11 11 11 11 11 11 12 12 12 12 12 12 12 13 13 12 13 13 12 12 11 11 11 10 10 9 8
10 10 9 9 8 8 7 7 6 5 5 4 3 2 1 1 0 1 1 2 3 4 4 5 6 6 7 7 8 8 9 9 9 9 9 9 9 9 9 9 9 8 8 8 8 7 7 7 7 7 7 7 8 8 8 9 9 9 9 10 10 10 10 10 10 11 11 11 11 12 12 12 12 12 12 12 12 12 12 12 12 12 12 11 10 9
11 11 10 10 9 9 8 8 7 6 5 4 4 3 2 2 1 1 1 2 3 4 4 5 6 6 7 7 7 8 8 8 9 9 9 9 8 8 8 8 8 8 8 8 7 7 7 7 7 6 6 6 7 7 7 7 8 8 8 9 9 9 9 9 10 10 10 11 11 11 11 12 12 12 12 12 12 12 12 12 12 12 12 12 11 11
12 12 11 11 10 10 9 8 8 7 6 5 5 4 3 3 2 2 2 2 3 4 5 5 6 7 7 7 8 8 8 8 8 8 8 8 8 8 8 8 8 8 8 8 7 7 7 7 7 6 6 6 6 6 6 7 7 7 7 8 8 8 9 9 9 10 10 10 11 11 11 11 11 12 12 12 12 12 12 12 12 12 12 12 12 11
13 13 12 11 11 10 10 9 8 8 7 6 6 5 4 4 3 3 3 3 4 4 5 6 7 7 8 8 8 8 8 8 8 8 8 8 8 8 8 8 8 8 8 8 8 8 8 8 7 7 7 7 6 6 6 6 6 7 7 7 8 8 9 9 9 9 10 10 10 11 11 11 11 12 12 12 12 12 12 12 12 12 12 12 12 11
14 13 13 12 12 11 10 9 9 8 7 7 6 6 5 5 4 4 4 4 4 5 6 6 7 8 8 8 8 9 9 9 9 9 9 8 8 8 8 8 8 8 8 8 8 8 8 8 8 8 8 8 7 7 7 7 7 7 7 7 8 8 8 9 9 9 9 10 10 10 11 11 11 12 12 12 12 12 13 13 13 12 12 12 12 12
14 14 14 13 12 12 11 10 10 9 8 8 7 6 6 5 5 4 4 4 5 6 6 7 8 8 8 9 9 9 9 9 9 9 9 9 9 8 8 8 8 8 8 8 8 9 9 9 9 9 9 8 8 8 8 8 8 8 8 8 8 8 8 9 9 9 10 10 10 10 10 11 11 11 12 12 12 13 13 13 13 13 13 13 13 12
15 15 14 14 13 13 12 11 11 10 9 8 8 7 6 6 5 5 5 5 6 6 7 8 8 9 9 9 9 10 9 9 9 9 9 9 9 9 9 9 8 8 8 8 9 9 9 9 9 9 9 9 9 9 9 9 9 9 9 9 9 9 9 9 9 10 10 10 10 10 11 11 11 11 12 12 13 13 13 13 14 14 14 14 14 13
15 15 15 14 14 13 13 12 11 11 10 9 9 8 7 6 6 6 6 6 7 7 8 8 9 9 9 9 10 10 10 9 9 9 9 9 9 9 9 9 9 9 9 9 9 9 9 9 9 10 10 10 10 10 10 10 10 10 10 10 10 10 10 10 10 10 10 11 11 11 11 11 11 12 12 12 13 13 13 14 14 14 15 15 15 15
16 16 15 15 15 14 13 13 12 11 11 10 9 8 8 7 7 7 7 8 8 8 9 9 9 9 9 10 10 10 10 10 10 10 9 9 9 9 9 9 9 9 9 9 9 9 9 9 10 10 10 10 10 11 11 11 11 11 11 11 11 11 11 11 11 11 11 11 11 12 12 12 12 12 12 13 13 13 14 14 14 15 15 16 16 16
16 16 16 15 15 15 14 13 13 12 11 11 10 9 9 9 8 8 9 9 9 10 10 9 9 9 9 10 10 10 10 10 10 10 9 9 9 9 9 9 9 9 9 9 9 9 9 10 10 10 10 10 11 11 11 11 11 11 11 11 11 11 12 12 12 12 12 12 12 12 12 12 12 12 13 13 13 14 14 15 15 15 16 16 17 17
17 16 16 16 15 15 15 14 13 13 12 11 11 10 10 10 10 10 10 10 10 11 10 10 10 10 10 10 10 10 10 10 10 10 10 9 9 9 9 9 9 9 9 9 9 9 10 10 10 10 10 10 11 11 11 11 11 12 12 12 12 12 12 12 12 12 13 13 13 13 13 13 13 13 13 13 14 14 15 15 15 16 16 16 17 18
17 17 16 16 16 15 15 14 14 13 12 12 12 11 11 11 11 11 12 12 12 11 11 11 10 10 10 10 10 10 10 10 10 10 10 10 9 9 9 9 9 9 9 9 9 10 10 10 10 11 11 11 11 11 11 12 12 12 12 12 12 12 12 12 13 13 13 13 13 13 13 13 14 14 14 14 14 14 15 15 16 16 16 17 17 18
Wind_Direction
37 36 35 34 32 31 28 27 25 24 23 22 21 20 20 19 18 17 15 13 9 5 360 356 354 353 354 355 359 6 14 19 22 22 19 16 18 24 30 35 41 50 59 65 70 74 78 82 84 87 90 98 107 118 128 138 148 157 164 168 170 171 172 172 171 171 172 172 173 174 176 180 183 182 178 178 179 181 183 186 188 190 191 192 193 194
36 36 35 34 33 31 30 28 28 27 26 25 25 24 22 21 20 20 18 16 12 8 4 360 357 356 355 356 360 7 15 20 23 23 22 20 22 28 35 39 44 52 61 67 71 74 77 80 82 84 87 91 98 106 115 125 136 148 157 160 163 164 165 165 165 166 168 170 172 174 176 180 182 181 179 180 181 183 185 187 189 190 191 191 192 192
37 37 36 35 34 32 31 30 30 29 29 28 28 27 25 24 23 22 20 18 15 11 8 4 1 359 358 359 2 9 16 20 23 24 24 25 28 34 38 41 45 53 61 67 71 74 77 80 82 83 85 87 91 96 103 112 127 141 151 154 156 157 158 160 161 164 166 168 170 173 177 181 183 183 183 183 185 186 188 189 189 190 190 190 190 190
37 37 36 35 34 33 32 32 31 31 31 31 30 30 28 27 26 25 23 20 18 15 12 9 6 5 4 4 7 12 17 20 23 25 27 31 37 41 42 43 47 53 61 65 69 72 75 78 80 81 82 83 85 89 94 104 122 138 146 150 152 154 155 158 160 163 166 169 172 174 178 181 183 184 185 186 187 188 190 190 189 189 189 189 189 190
36 36 36 35 34 33 32 32 32 32 32 33 33 32 31 30 28 27 25 23 21 19 17 15 14 13 13 14 15 17 19 21 24 28 32 38 45 48 46 46 50 57 64 66 66 67 69 72 74 76 77 78 80 83 89 100 120 137 145 149 151 153 155 158 160 164 169 172 174 175 176 179 182 183 185 186 188 190 191 190 189 189 189 189 191 192
36 35 35 34 33 33 32 32 33 33 33 34 34 34 33 32 31 29 28 26 25 24 24 24 24 24 25 24 23 22 23 27 31 36 41 46 51 53 51 50 55 64 72 75 72 68 67 69 70 72 73 74 76 79 86 99 120 138 147 151 153 155 157 159 162 166 170 172 173 173 174 176 179 181 183 185 188 190 191 190 189 190 190 192 193 194
36 35 34 33 32 31 31 32 33 33 34 35 35 35 35 34 33 31 30 28 28 28 30 31 33 34 33 31 29 29 32 38 44 48 50 53 57 59 59 58 62 68 76 79 78 73 70 71 72 72 72 72 74 78 86 102 124 141 149 154 157 160 163 164 165 166 169 170 170 170 171 173 175 178 181 184 187 190 191 191 192 193 194 195 195 196
36 35 34 33 32 31 31 32 32 33 34 35 36 36 36 35 34 33 31 30 30 31 34 36 38 38 38 37 36 39 43 49 54 56 57 57 59 63 67 68 70 72 74 74 71 68 68 70 72 73 73 72 73 78 86 102 124 141 152 158 165 171 174 170 167 166 167 167 168 169 170 171 173 175 179 183 187 190 192 193 195 197 199 198 196 196
37 35 34 33 32 31 31 31 32 33 33 35 36 37 37 37 36 34 33 32 32 33 35 38 39 40 40 41 43 46 49 52 53 55 59 62 65 67 72 77 80 80 78 71 63 58 57 60 65 69 72 74 76 80 85 96 116 137 151 162 173 183 182 173 168 167 167 167 167 168 169 171 173 176 180 183 187 190 192 195 196 197 197 197 195 194
37 35 33 32 31 30 31 32 32 33 33 34 36 37 38 38 37 36 35 34 34 35 37 39 40 41 42 44 46 48 49 48 48 51 58 69 75 77 79 85 92 96 92 80 66 55 50 49 52 57 64 69 74 79 85 96 117 140 154 162 170 172 170 168 167 166 166 166 166 168 170 173 176 179 180 182 184 186 188 189 190 190 191 191 191 191
38 35 33 32 31 30 30 31 32 33 34 34 36 37 38 38 38 38 37 37 37 38 40 41 42 43 44 46 48 49 50 50 50 53 59 69 78 82 84 88 94 100 101 92 77 64 55 49 48 51 58 65 72 80 91 109 135 155 163 161 157 157 158 160 163 165 166 167 168 170 172 174 175 175 173 173 175 177 178 179 181 182 184 186 189 191
38 36 34 32 32 31 31 31 32 33 34 35 36 37 39 39 39 39 39 39 40 42 43 44 45 46 47 49 52 54 56 57 58 60 62 67 72 77 81 85 89 93 95 93 87 82 77 73 68 68 73 78 82 86 95 112 137 155 155 148 147 150 153 157 161 165 167 167 166 165 165 164 162 161 160 161 163 166 170 172 175 179 182 187 191 194
38 36 35 34 33 32 32 32 33 33 34 34 36 38 39 39 39 39 40 41 42 44 46 47 48 49 51 53 56 60 62 64 65 65 65 67 69 71 74 78 83 88 92 93 94 95 97 99 99 99 99 100 99 97 97 104 121 137 140 141 142 144 147 152 157 159 159 158 155 151 147 146 145 146 148 151 155 159 164 169 175 180 186 191 195 196
39 37 36 36 35 34 33 33 33 33 33 34 36 38 39 40 40 40 41 43 44 46 48 50 52 53 54 57 60 63 66 67 66 65 65 66 67 68 69 72 77 83 90 95 98 100 101 103 104 105 106 108 108 106 102 103 115 130 139 141 140 139 141 145 147 148 146 142 136 131 129 130 134 138 142 146 150 156 161 168 175 182 189 193 195 195
39 39 38 37 36 35 34 33 33 33 34 36 37 38 39 40 41 42 43 45 47 49 50 53 54 56 57 60 62 64 65 65 63 61 61 63 65 67 68 71 76 81 87 92 96 97 98 99 100 101 104 108 110 111 110 111 119 130 137 138 135 131 129 128 126 121 116 111 110 113 117 124 131 137 141 146 150 155 160 165 172 180 186 190 192 193
38 38 38 37 37 36 36 35 34 35 36 37 38 39 40 41 42 42 44 47 49 51 53 56 57 59 60 61 62 63 62 60 56 54 56 60 64 66 69 73 77 82 85 88 90 91 91 91 92 93 96 99 104 107 108 111 115 119 120 118 112 108 106 104 101 100 99 100 104 110 117 124 131 138 144 150 155 159 164 169 175 183 189 193 197 201
35 35 36 36 37 38 37 37 37 37 38 39 40 40 41 42 42 43 45 47 50 53 55 56 58 61 62 62 62 61 59 56 53 52 54 60 65 69 72 75 78 81 84 86 87 88 89 89 89 89 89 90 91 93 95 97 98 98 97 95 94 93 92 93 93 95 97 100 102 105 108 112 117 124 135 145 156 166 174 182 190 198 204 209 213 215
31 31 33 35 37 39 39 39 39 39 39 40 41 41 42 42 43 44 45 47 50 53 55 57 59 61 63 63 62 60 57 54 52 52 56 62 68 73 76 78 80 81 83 84 86 87 88 89 88 88 87 86 86 87 88 89 89 88 88 88 87 87 88 89 90 90 91 91 90 90 90 90 90 92 94 99 107 119 139 161 181 197 209 218 225 226
27 27 30 33 36 38 40 41 41 40 40 41 41 42 43 43 44 44 45 47 49 52 55 58 60 62 63 64 63 60 56 54 53 54 57 64 70 75 78 81 82 83 83 83 84 85 86 87 87 87 86 86 87 89 91 91 90 88 87 85 84 84 84 85 85 85 84 82 81 80 80 81 82 82 81 81 81 83 85 93 110 147 186 206 218 222
26 24 28 31 35 38 40 42 42 42 41 41 42 43 44 44 44 45 46 47 48 51 53 57 60 62 64 64 63 61 58 55 54 56 60 65 71 75 79 82 83 84 84 84 84 84 86 87 89 90 91 93 96 99 100 100 99 97 93 88 83 80 79 80 80 79 78 76 74 73 74 76 78 79 78 77 75 75 74 75 78 89 118 169 195 204
27 24 25 28 32 37 40 42 43 43 43 42 43 44 45 45 45 46 46 46 48 50 52 56 59 62 64 65 65 64 62 58 56 58 63 67 71 74 77 80 82 83 84 84 84 85 86 88 91 94 97 100 103 103 102 100 99 98 95 88 80 74 72 72 72 72 72 71 70 68 68 70 73 75 74 73 71 69 68 67 68 71 79 99 142 176
28 22 22 25 29 34 37 40 43 44 44 44 45 45 46 46 46 46 47 47 48 49 51 55 58 61 63 66 67 67 67 64 62 62 65 69 73 75 76 77 79 80 82 83 84 84 85 88 91 96 100 104 105 104 101 97 94 92 88 83 76 69 64 61 61 62 64 68 69 67 63 64 66 68 68 66 64 61 59 58 58 61 66 76 98 141
28 18 19 23 26 30 34 38 41 44 45 46 47 47 47 47 47 48 48 48 48 48 50 52 55 58 62 64 66 68 70 69 67 66 68 72 75 77 78 78 78 79 80 82 83 83 84 86 89 93 98 103 105 105 103 99 95 91 87 84 79 72 63 54 51 53 60 68 71 68 62 60 61 63 63 61 58 53 48 45 45 49 56 66 84 119
35 18 17 20 22 26 30 34 39 42 45 47 49 50 50 49 49 49 49 49 48 48 48 50 53 56 59 62 65 68 70 71 71 70 71 73 76 79 81 81 81 82 82 83 84 84 85 85 87 89 93 98 101 104 104 103 100 97 93 90 85 77 65 54 50 53 62 73 77 73 65 60 61 63 64 61 56 48 41 34 31 34 41 53 70 99
52 20 15 15 18 22 26 30 35 38 42 46 50 52 52 52 51 50 50 50 50 49 49 49 51 54 57 60 64 67 69 71 72 72 73 74 77 80 83 83 84 85 85 86 86 87 87 87 88 90 92 95 99 101 103 103 101 98 94 89 82 75 67 61 59 63 73 82 83 76 65 59 59 61 63 61 54 45 35 27 24 25 31 41 53 74
96 15 10 12 14 18 22 25 29 33 38 43 49 53 54 53 52 51 51 51 51 50 50 49 50 52 55 58 61 64 67 69 71 72 73 74 76 79 82 82 83 84 85 86 88 88 88 89 90 92 95 97 100 101 102 102 101 99 96 92 88 83 79 77 76 79 83 85 81 69 57 51 50 51 52 49 43 34 27 23 23 26 32 38 46 57
170 9 5 8 12 15 17 20 23 27 32 39 46 51 54 54 53 52 52 53 53 53 51 49 49 51 53 56 59 61 64 66 68 70 71 72 74 77 79 79 79 80 82 84 86 88 89 89 90 92 94 97 100 102 103 104 104 103 102 101 99 98 96 94 92 91 89 84 75 63 52 45 43 43 42 39 35 30 28 27 28 32 37 41 47 53
187 216 347 2 8 11 13 15 18 22 28 35 42 49 53 55 54 53 54 55 55 55 53 51 51 51 52 54 56 59 61 63 65 67 68 69 71 73 75 76 76 76 77 80 82 85 87 88 89 89 91 93 95 98 101 102 104 105 105 106 105 106 106 105 104 105 103 101 96 86 70 58 51 46 42 38 36 34 34 33 34 35 39 44 51 57
200 217 283 344 359 5 8 9 12 17 24 31 39 46 52 55 56 55 55 56 57 57 55 54 53 52 52 53 55 57 59 61 62 63 65 66 68 70 72 73 74 74 73 74 77 80 83 85 86 87 87 88 89 91 93 96 98 101 103 104 106 108 110 112 114 116 118 120 119 110 92 75 62 51 44 38 34 32 30 29 30 32 38 46 54 61
206 217 237 297 343 354 359 3 7 13 21 29 38 47 53 57 57 56 56 58 59 58 57 56 55 54 53 52 53 56 59 60 61 61 62 63 65 66 69 71 72 73 72 71 72 75 78 80 81 83 83 84 84 85 85 86 88 90 92 94 96 99 101 104 106 107 106 103 97 88 77 67 56 43 35 28 25 21 20 18 18 20 27 38 49 58
208 213 221 247 304 336 349 356 3 11 20 30 40 48 54 56 56 55 56 58 59 59 57 57 56 56 54 51 50 53 57 59 60 60 60 61 62 64 66 69 71 72 73 73 72 72 74 76 77 78 79 80 81 81 81 81 81 82 81 81 81 81 81 81 79 76 73 69 66 62 55 45 32 18 9 6 6 6 7 7 6 8 13 25 40 51
210 214 221 235 269 309 335 350 1 12 23 34 42 48 52 53 53 53 55 56 57 57 57 57 57 57 55 52 50 51 54 57 58 58 58 59 60 61 63 66 68 71 73 74 74 73 74 75 75 75 76 77 78 78 79 79 79 79 78 78 77 75 72 71 67 63 59 57 52 45 34 18 3 351 347 345 349 354 358 1 360 359 3 16 32 45
210 215 223 233 251 278 314 343 3 17 28 37 43 46 47 48 50 51 52 53 53 54 55 56 56 57 56 54 52 52 54 55 56 56 56 57 57 58 59 62 64 67 69 71 72 72 72 73 74 74 75 75 76 76 76 76 76 75 75 75 74 73 70 68 65 62 58 54 49 43 38 30 22 12 4 358 357 358 2 4 2 357 354 2 18 36
212 217 223 229 238 250 275 323 6 25 34 40 42 42 43 45 47 49 49 50 50 50 51 53 54 55 55 54 54 53 54 55 56 55 54 54 54 54 55 57 59 62 64 66 67 68 69 70 71 72 73 73 73 74 74 74 73 73 72 71 71 69 67 65 63 61 57 55 51 47 44 42 39 35 31 26 21 18 18 16 10 360 350 348 352 6
213 218 221 224 226 228 229 231 35 47 46 44 42 40 40 44 46 47 47 46 46 46 47 48 49 50 51 52 52 52 54 55 56 56 55 54 53 52 51 52 52 54 57 58 60 61 63 65 66 68 69 69 69 70 71 71 71 71 70 68 67 66 65 63 62 60 58 55 53 50 47 46 43 41 39 36 33 31 29 26 19 9 358 351 345 340
214 217 219 219 217 213 209 201 187 156 109 62 45 40 42 45 45 45 45 43 42 42 42 42 43 43 45 46 47 49 51 52 54 56 56 55 54 52 50 49 47 47 48 50 51 53 54 57 59 61 62 62 62 63 65 66 67 67 67 66 65 63 62 61 60 58 56 54 52 49 47 45 43 40 38 36 34 32 31 28 24 17 7 359 352 346
212 213 214 212 210 206 201 197 192 184 177 156 92 52 48 48 47 44 40 37 35 35 36 37 38 39 40 40 41 42 44 47 49 50 51 52 53 52 50 48 47 46 45 44 44 45 46 48 50 52 53 54 54 55 56 57 59 60 60 61 61 61 59 59 57 56 54 52 50 48 46 44 41 38 36 34 32 30 28 26 23 19 13 6 360 354
206 207 207 206 203 201 198 196 193 189 186 182 167 128 70 53 46 39 33 27 24 25 27 29 32 33 34 35 35 36 37 39 40 42 44 46 47 47 47 47 46 46 45 43 42 41 40 41 42 44 45 46 46 46 46 47 48 50 51 53 54 55 55 55 54 53 52 50 49 47 45 43 40 38 35 32 29 26 23 21 18 16 13 9 5 360
200 200 199 198 197 196 195 192 191 189 188 187 184 183 158 60 33 21 15 9 8 11 15 19 22 25 27 28 29 29 30 31 32 34 35 37 38 40 40 41 41 41 42 41 39 38 37 36 36 36 37 38 39 38 38 38 39 40 41 43 44 46 47 48 48 49 48 47 46 45 44 43 41 38 36 33 30 26 22 18 15 13 10 7 4 1
195 194 193 192 192 191 190 189 189 189 189 191 194 200 203 208 287 338 340 341 346 352 359 6 11 15 17 20 21 22 23 24 24 25 26 27 28 29 31 32 33 34 34 34 34 33 33 33 33 32 31 30 29 30 30 29 30 30 30 32 33 34 35 37 38 40 41 41 41 41 41 40 40 38 36 34 31 27 23 20 16 14 11 7 2 356
190 189 188 189 189 189 188 188 188 189 190 192 195 199 203 210 231 286 316 325 332 339 346 353 359 4 6 9 11 13 15 15 16 16 17 18 18 19 19 21 22 23 24 25 25 25 26 27 27 27 25 23 21 20 19 19 19 19 19 20 21 22 23 24 26 28 30 32 33 34 35 35 35 35 34 33 31 29 27 23 20 16 13 10 4 358
185 184 185 185 186 186 187 188 190 190 193 195 197 199 205 214 228 254 289 310 324 331 336 343 348 353 357 359 1 3 5 6 7 7 7 8 8 8 8 9 9 10 11 13 13 14 15 16 17 18 17 16 14 12 11 9 9 8 8 9 10 11 11 13 14 16 19 21 22 24 26 27 28 28 29 29 28 28 27 25 23 19 15 11 8 3
182 181 182 184 185 187 189 190 192 194 197 200 203 207 215 223 236 251 272 292 309 320 327 334 340 345 349 351 353 354 355 356 357 358 358 358 358 358 358 357 357 357 358 360 1 2 3 4 5 6 5 5 5 4 3 1 359 359 360 360 360 1 4 4 5 5 8 10 12 14 15 17 18 20 21 21 22 22 23 22 22 20 18 14 10 6
180 180 182 183 185 188 189 191 194 197 201 204 208 214 223 232 243 255 271 287 301 312 321 328 333 338 342 344 347 348 348 348 349 349 349 350 350 349 348 348 347 346 347 348 350 351 352 353 353 354 354 355 355 355 354 353 352 352 352 352 352 353 355 356 356 357 358 360 2 4 6 8 9 10 12 13 14 15 16 16 16 17 16 15 13 10
180 181 182 184 186 188 190 192 196 200 204 208 213 220 229 238 248 261 276 290 301 311 318 325 330 335 337 339 341 342 342 342 342 342 342 342 341 341 340 340 339 338 338 339 339 341 341 343 344 344 344 345 346 346 347 346 346 345 345 346 346 347 347 347 349 350 352 353 354 356 358 359 1 2 4 5 6 7 8 9 10 11 12 12 12 10
181 182 184 186 189 191 193 197 200 204 208 213 218 225 233 242 253 266 279 291 302 310 317 322 328 332 334 335 336 337 337 337 336 336 335 335 335 334 333 333 332 331 331 331 330 331 332 333 335 336 336 337 337 338 339 339 340 341 340 341 342 342 343 344 344 346 347 347 348 349 350 352 353 355 357 358 359 360 1 3 4 6 7 8 8 8
183 185 187 190 192 195 199 202 205 208 212 217 223 230 239 248 259 271 283 292 302 309 316 320 325 328 330 331 331 332 332 331 331 330 329 329 328 328 328 327 326 324 324 324 323 323 324 325 326 327 329 330 332 332 332 333 335 337 337 338 338 339 340 341 342 342 343 343 344 344 345 346 348 349 350 351 352 354 355 357 359 1 2 4 5 6
187 189 191 194 196 199 203 206 210 213 217 223 229 237 246 255 265 276 286 294 301 308 313 318 322 325 326 327 327 328 327 327 326 325 324 323 322 322 321 321 320 319 318 317 316 316 317 317 318 320 322 324 325 326 327 328 330 332 333 334 335 336 337 338 338 339 340 340 340 340 341 342 343 345 345 346 347 349 350 352 354 356 358 0 2 3
191 193 196 198 201 204 207 211 215 219 224 230 236 245 254 262 271 280 288 295 301 306 311 315 319 321 323 324 324 324 324 323 322 321 320 318 318 316 316 315 314 314 313 312 311 311 311 310 311 312 314 317 319 321 321 323 325 327 329 330 331 333 334 335 336 336 337 338 338 338 338 338 339 340 341 342 344 345 346 348 350 352 354 357 359 360
196 199 201 204 207 210 214 218 222 227 232 239 245 253 262 269 277 283 289 295 300 304 308 312 315 318 320 321 321 321 321 320 318 317 316 314 313 312 311 310 309 308 307 307 306 306 306 307 307 307 308 310 313 316 318 320 321 322 324 326 327 329 331 332 333 334 334 335 335 335 335 335 335 336 337 339 340 341 343 345 347 349 351 353 355 357
201 204 207 210 213 217 221 225 230 236 241 248 254 261 268 274 280 286 290 295 299 302 306 309 313 315 317 318 318 318 317 316 315 313 312 310 309 308 306 305 304 304 303 303 303 303 303 305 306 307 307 307 308 311 315 317 318 320 321 322 324 326 328 329 330 330 332 332 332 332 332 332 332 332 334 335 337 339 340 342 344 346 348 350 353 354